Regional Weather Roundup
Issued by NWS Newport/Morehead, NC

Current Version | Previous Version | Graphics & Text | Print | Product List | Glossary Off
Versions: 1 2 3 4 5 6 7 8 9 10 11 12 13 14 15 16 17 18 19 20 21 22 23 24 25 26 27 28 29 30 31 32 33 34 35 36 37 38 39 40 41 42 43 44 45 46 47 48 49 50

000
ASUS42 KMHX 021025
RWRMHX
WEATHER ROUNDUP FOR EASTERN NORTH CAROLINA
NATIONAL WEATHER SERVICE NEWPORT/MOREHEAD CITY NC
600 AM EDT MON MAY 02 2016

NOTE: "FAIR" INDICATES FEW OR NO CLOUDS BELOW 12,000 FEET
WITH NO SIGNIFICANT WEATHER AND/OR OBSTRUCTIONS TO VISIBILITY

NCZ015>017-031-032-045>047-102-103-021100-
NORTH COAST

CITY           SKY/WX    TMP DP  RH WIND       PRES   REMARKS
EDENTON        CLOUDY    69  69 100 SW5       30.00R
ELIZABETH CITY CLOUDY    68  66  93 SW9       29.98S
KITTY HAWK     CLOUDY    68  67  97 SW7       29.98F
MANTEO         NOT AVBL

$$

NCZ045>047-081-094-103-104-021100-
CENTRAL COAST

CITY           SKY/WX    TMP DP  RH WIND       PRES   REMARKS
FRISCO         CLOUDY    68  67  96 SW5       30.03R
SWANQUARTER    NOT AVBL

$$

NCZ095-097-098-100-101-021100-
SOUTHERN COAST

CITY           SKY/WX    TMP DP  RH WIND       PRES   REMARKS
BEAUFORT       PTCLDY    69  68  96 SW8       30.03R
CEDAR ISLAND   NOT AVBL
JACKSONVILLE   PTCLDY    68  66  93 S5        30.01F
PINEY ISLAND   NOT AVBL
WILMINGTON     MOCLDY    70  68  93 SW5       30.03S


$$

NCZ011>013-027>030-043-044-078>080-089-090>093-098-021100-
COASTAL PLAIN

CITY           SKY/WX    TMP DP  RH WIND       PRES   REMARKS
AHOSKIE        CLOUDY    66  65  96 S6        29.97S
CLINTON        CLOUDY    68  68 100 SW5       30.01R FOG
ELIZABETHTOWN  CLOUDY    68  68 100 S6        30.01S FOG
GOLDSBORO      MOCLDY    70  70 100 VRB6      29.97F
GREENVILLE     CLOUDY    70  68  94 SW9       30.00S
HAVELOCK       MOCLDY    70  68  93 SW8       30.03S FOG
KENANSVILLE    CLOUDY    68  67  98 SW5       30.01F FOG
KINSTON        CLOUDY    69  68  94 SW8       30.00F
NEW BERN       MOCLDY    68  66  93 S6        30.02S
RICHLANDS      CLOUDY    66  66 100 S8        30.02F FOG
ROCKY MOUNT    CLOUDY    67  66  97 S7        29.98S
WASHINGTON     CLOUDY    68  66  95 SW8       29.99F
WHITEVILLE     FOG       68  67  96 S5        30.02S VSB 1/2

$$

AMZ130-135-150-152-154-156-158-170-250-252-270-ANZ085-086-088-633-658-670-021100-
MARINE OBSERVATIONS

STATION/POSITION TIME  TEMP    WIND        PRES    WAVE   SWELL
                       AIR SEA DIR/SP/G            HT/PER HT/PER
                 (UTC) (F)     (DEG/KT/KT) (MB)    (FT/S) (FT/S)
CHESAPEAKE LIGHT 1000   63     200/ 15/ 15 1015.0
64 E VA BEACH    0950   57 53  200/ 10/ 12 1015.0    5/11   5/11
DUCK             1000   69 66  210/ 10/ 13 1014.8
2 E DUCK         0911      58                N/A     3/ 9   2/11
OREGON INLET     1000   68 67  200/  9/ 10 1015.8
13E OREGON INLT  1000      59                N/A     5/11   5/11
HATTERAS CG      1000   69 68  200/  4/  7 1016.5
DIAMOND BUOY     0950   73 73  240/ 14/ 16 1016.7    4/ 9   3/ 9
CAPE LOOKOUT     1000   70     210/  8/ 11 1016.6
BEAUFORT LAB     1000   69 67  220/  3/  6 1015.9
30 SE NEW RVR IN 0955      69                N/A     4/10   2/11
27 SE WRIGHTSVLE 1008   73 72  210/ 12/ 16 1016.8
5 SE WRIGHTSVLE  1008   70 68  220/  6/ 10 1017.4
225 S CAPE HAT   0950   73 74  150/ 10/ 12 1019.2    3/10   3/10
41 SE CHARLESTON 0950   75 74  210/  8/ 10 1016.6    3/ 9   3/ 9

$$



USA.gov is the U.S. government's official web portal to all federal, state and local government web resources and services.